[[{"header":{"parameterUnit":"m.s-1","parameterCategory":1,"la1":30.2991,"la2":30.254,"lo1":-89.0895,"lo2":-89.0444,"dy":0.0017,"dx":0.0017,"nx":28,"ny":28,"refTime":"2025-05-30T09:00:00:Z","depth":0,"parameterNumber":2,"parameterNumberName":"U-component_of_WINDS"},"data":[0,0,0,0,0,0,0,0,0,0,0,0,0,0,0,0,0,0,0,0,0,0,0,0,0,0,0,0,0,0,0,0,0,0,0,0,0,0,0,0,0,0,0,0,0,0,0,0,0,0,0,0,0,0,0,0,0,0,-0.4044,-0.4044,0,-0.4102,-0.4102,-0.4103,-0.4064,-0.4062,-0.406,-0.4058,-0.4122,-0.4125,-0.4128,0,0,0,0,0,0,0,0,0,0,0,0,0,-0.3902,-0.3904,-0.4044,-0.4044,-0.4045,-0.4102,-0.4102,-0.4103,-0.4064,-0.4062,-0.406,-0.4057,-0.4121,-0.4125,-0.4129,0,0,0,0,0,0,0,0,0,0,0,0,0,-0.3962,-0.3905,-0.4044,-0.4032,-0.4032,-0.4102,-0.4103,-0.4104,-0.4064,-0.4062,-0.4059,-0.4056,-0.4119,-0.4124,-0.4129,-0.4214,0,0,-0.4145,-0.4147,0,0,0,0,0,0,0,0,-0.3959,-0.3967,-0.4033,-0.4033,-0.4033,-0.4073,-0.4076,-0.4141,-0.4065,-0.4052,-0.4058,-0.4055,-0.4108,-0.4114,-0.4131,-0.4217,-0.422,-0.4145,-0.4148,-0.415,-0.4152,0,0,0,0,0,0,0,-0.3954,-0.3965,-0.4067,-0.4034,-0.4034,-0.4025,-0.4031,-0.4088,-0.4095,-0.4053,-0.405,-0.4058,-0.4107,-0.4126,-0.4132,-0.4221,-0.4145,-0.4149,-0.4152,-0.4154,-0.4381,-0.4384,0,0,0,0,0,0,-0.3951,-0.3961,-0.4065,-0.4069,-0.3988,-0.403,-0.4036,-0.4063,-0.4094,-0.4096,-0.406,-0.4055,-0.4118,-0.4126,-0.4134,-0.4236,-0.415,-0.4155,-0.4158,-0.4378,-0.4381,-0.4385,0,0,0,0,0,0,-0.3948,-0.396,-0.4063,-0.4014,-0.4026,-0.4035,-0.4065,-0.4065,-0.4084,-0.4099,-0.41,-0.4077,-0.4117,-0.4127,-0.4194,-0.4238,-0.4157,-0.4162,-0.4374,-0.4379,-0.4383,-0.4442,0,0,0,0,0,0,-0.3944,-0.396,-0.3992,-0.4015,-0.4029,-0.4122,-0.4068,-0.4068,-0.4092,-0.4087,-0.4116,-0.4118,-0.4115,-0.4187,-0.4199,-0.4244,-0.4166,-0.437,-0.4376,-0.4382,-0.4436,-0.4448,-0.4458,0,0,0,0,0,-0.3939,-0.4007,-0.3993,-0.4006,-0.4069,-0.4124,-0.4132,-0.4127,-0.4096,-0.4129,-0.4138,-0.4117,-0.4231,-0.4194,-0.4208,-0.4254,-0.4368,-0.4375,-0.4381,-0.4431,-0.4446,-0.4458,0,0,0,0,0,0,-0.399,-0.401,-0.3995,-0.4072,-0.4097,-0.4117,-0.4159,-0.4142,-0.4177,-0.4171,-0.4164,-0.4171,-0.4242,-0.4254,-0.4213,-0.4338,-0.4294,-0.4304,-0.4328,-0.4342,-0.4352,-0.4349,-0.417,0,0,0,0,0,-0.401,-0.4052,-0.4067,-0.4134,-0.4146,-0.415,-0.4174,-0.4168,-0.4193,-0.4204,-0.4218,-0.4245,-0.4286,-0.4314,-0.4353,-0.4437,-0.4443,-0.4475,-0.4486,-0.4495,-0.4504,-0.455,-0.4565,-0.4407,-0.4407,-0.4406,0,0,-0.4052,-0.4068,-0.4095,-0.4144,-0.4162,-0.4207,-0.416,-0.4209,-0.4242,-0.4212,-0.4277,-0.4288,-0.4317,-0.4393,-0.4427,-0.4406,-0.4549,-0.4503,-0.451,-0.4515,-0.4558,-0.4573,-0.4587,-0.4411,-0.441,-0.441,0,0,-0.4152,-0.4168,-0.4225,-0.4244,-0.4271,-0.4273,-0.4287,-0.431,-0.4316,-0.438,-0.4358,-0.4398,-0.4469,-0.4491,-0.4512,-0.4618,-0.4601,-0.4631,-0.4689,-0.4733,-0.4746,-0.4757,-0.4796,-0.481,-0.4639,-0.464,-0.464,0,-0.4202,-0.4267,-0.4257,-0.4308,-0.4331,-0.4302,-0.4361,-0.438,-0.442,-0.4436,-0.4411,-0.45,-0.4517,-0.4598,-0.4624,-0.4641,-0.4658,-0.4629,-0.4744,-0.4755,-0.4765,-0.4803,-0.4818,-0.4643,-0.4643,-0.4642,-0.4642,0,-0.4327,-0.4373,-0.4416,-0.4454,-0.4481,-0.4535,-0.4534,-0.4563,-0.4553,-0.4558,-0.4624,-0.4644,-0.4686,-0.4704,-0.4696,-0.4785,-0.477,-0.4745,-0.4701,-0.4784,-0.482,-0.4834,-0.4648,-0.4647,-0.4646,-0.4645,0,0,-0.4464,-0.4493,-0.451,-0.4526,-0.4553,-0.4589,-0.4642,-0.4682,-0.4708,-0.4735,-0.4781,-0.4841,-0.4817,-0.484,-0.4834,-0.4872,-0.4957,-0.4842,-0.4843,-0.4864,-0.5057,-0.5077,-0.5094,-0.4944,-0.4947,-0.4949,-0.5055,0,-0.4567,-0.4659,-0.465,-0.4738,-0.4781,-0.4754,-0.48,-0.4822,-0.4828,-0.4865,-0.4871,-0.4915,-0.4879,-0.4893,-0.493,-0.4939,-0.4996,-0.4931,-0.4988,-0.499,-0.4984,-0.5112,-0.5134,-0.5234,-0.5068,-0.507,-0.5072,0,-0.47,-0.4731,-0.4822,-0.4843,-0.486,-0.4902,-0.4938,-0.4974,-0.4998,-0.4999,-0.5024,-0.5011,-0.5065,-0.5018,-0.5093,-0.5049,-0.5071,-0.5079,-0.5083,-0.509,-0.5038,-0.5125,-0.5265,-0.5281,-0.5093,-0.5092,-0.509,0,-0.4792,-0.4857,-0.492,-0.4934,-0.4959,-0.4989,-0.5001,-0.5023,-0.5048,-0.5079,-0.5095,-0.5133,-0.5154,-0.5184,-0.5181,-0.5147,-0.5258,-0.521,-0.5262,-0.5262,-0.5289,-0.5288,-0.5437,-0.53,-0.53,-0.5299,-0.5299,0,-0.491,-0.4967,-0.4962,-0.5001,-0.5064,-0.5054,-0.5118,-0.5126,-0.5145,-0.5186,-0.5164,-0.5204,-0.5196,-0.5236,-0.5234,-0.5297,-0.5306,-0.531,-0.5309,-0.5313,-0.5313,-0.533,-0.5324,-0.5303,-0.5302,-0.5302,-0.5301,0,-0.5025,-0.5023,-0.5091,-0.5108,-0.5113,-0.516,-0.5175,-0.5212,-0.5214,-0.5267,-0.5278,-0.5283,-0.5328,-0.5327,-0.5378,-0.5377,-0.5455,-0.5445,-0.5447,-0.5446,-0.5498,-0.5494,-0.5665,-0.5688,-0.5534,-0.5535,-0.5536,0,-0.5101,-0.5145,-0.5166,-0.5191,-0.5205,-0.5246,-0.527,-0.5261,-0.5288,-0.5318,-0.5352,-0.5394,-0.5428,-0.5501,-0.551,-0.5549,-0.5541,-0.5598,-0.5547,-0.555,-0.5544,-0.5543,-0.5547,-0.5609,-0.5611,-0.5612,-0.5613,0,-0.5237,-0.5234,-0.5269,-0.5305,-0.5334,-0.5362,-0.5387,-0.5409,-0.5402,-0.5433,-0.5478,-0.5504,-0.5556,-0.5599,-0.5636,-0.5649,-0.5631,-0.5629,-0.5643,-0.5649,-0.5649,-0.5651,-0.5477,-0.5626,-0.5625,-0.5624,-0.5623,-0.5622,-0.5337,-0.5374,-0.5395,-0.5435,-0.5453,-0.5476,-0.5512,-0.5518,-0.5555,-0.5596,-0.5588,-0.5639,-0.5661,-0.5709,-0.5725,-0.5765,-0.5745,-0.5766,-0.5771,-0.5777,-0.5784,-0.564,-0.5772,-0.5771,-0.5771,-0.5771,-0.577,0,-0.5473,-0.5485,-0.5521,-0.5557,-0.5589,-0.5566,-0.5592,-0.5621,-0.5665,-0.5687,-0.572,-0.5772,-0.5813,-0.5824,-0.5863,-0.5893,-0.5886,-0.5904,-0.5903,-0.5907,-0.5799,-0.5783,-0.5909,-0.5909,-0.5909,-0.5909,-0.5909,-0.5909,-0.5548,-0.5611,-0.5609,-0.568,-0.5691,-0.574,-0.5757,-0.5779,-0.5796,-0.5855,-0.5888,-0.5894,-0.5912,-0.5952,-0.5989,-0.5991,-0.6007,-0.603,-0.6029,-0.5928,-0.5914,-0.5901,-0.5887,-0.6033,-0.6033,-0.6134,-0.6135,-0.6135]},{"header":{"parameterUnit":"m.s-1","parameterCategory":1,"la1":30.2991,"la2":30.254,"lo1":-89.0895,"lo2":-89.0444,"dy":0.0017,"dx":0.0017,"nx":28,"ny":28,"refTime":"2025-05-30T09:00:00:Z","depth":0,"parameterNumber":3,"parameterNumberName":"V-component_of_WINDS"},"data":[0,0,0,0,0,0,0,0,0,0,0,0,0,0,0,0,0,0,0,0,0,0,0,0,0,0,0,0,0,0,0,0,0,0,0,0,0,0,0,0,0,0,0,0,0,0,0,0,0,0,0,0,0,0,0,0,0,0,-5.4039,-5.404,0,-5.4155,-5.4156,-5.4157,-5.4083,-5.408,-5.4076,-5.4073,-5.4188,-5.4194,-5.42,0,0,0,0,0,0,0,0,0,0,0,0,0,-5.3749,-5.3755,-5.4039,-5.404,-5.4042,-5.4155,-5.4156,-5.4158,-5.4084,-5.408,-5.4076,-5.4072,-5.4186,-5.4193,-5.4201,0,0,0,0,0,0,0,0,0,0,0,0,0,-5.3871,-5.3757,-5.4038,-5.4019,-5.4018,-5.4154,-5.4156,-5.4158,-5.4085,-5.408,-5.4074,-5.407,-5.4183,-5.4192,-5.4202,-5.4363,0,0,-5.423,-5.4234,0,0,0,0,0,0,0,0,-5.3864,-5.3882,-5.402,-5.402,-5.402,-5.4099,-5.4096,-5.4227,-5.4086,-5.4059,-5.4073,-5.4067,-5.4162,-5.4173,-5.4206,-5.4368,-5.4373,-5.4231,-5.4237,-5.4241,-5.4244,0,0,0,0,0,0,0,-5.3856,-5.3876,-5.4084,-5.4022,-5.4022,-5.4002,-5.4014,-5.412,-5.4138,-5.4061,-5.4056,-5.4071,-5.4161,-5.4197,-5.4208,-5.4375,-5.4231,-5.4239,-5.4245,-5.4249,-5.4674,-5.468,0,0,0,0,0,0,-5.385,-5.387,-5.4081,-5.4088,-5.3928,-5.4012,-5.4025,-5.4079,-5.4137,-5.4141,-5.4075,-5.4067,-5.4184,-5.4197,-5.4212,-5.4404,-5.4241,-5.425,-5.4255,-5.4669,-5.4676,-5.4682,0,0,0,0,0,0,-5.3844,-5.3869,-5.4076,-5.3978,-5.4002,-5.4022,-5.4084,-5.4084,-5.412,-5.4148,-5.415,-5.4109,-5.418,-5.4199,-5.4326,-5.4407,-5.4254,-5.4262,-5.4662,-5.4671,-5.4679,-5.4791,0,0,0,0,0,0,-5.3836,-5.3868,-5.393,-5.398,-5.4008,-5.419,-5.4089,-5.409,-5.4137,-5.4127,-5.418,-5.4184,-5.4177,-5.4312,-5.4335,-5.4417,-5.427,-5.4655,-5.4666,-5.4676,-5.478,-5.4802,-5.4821,0,0,0,0,0,-5.3826,-5.3956,-5.3934,-5.3959,-5.4087,-5.4195,-5.4211,-5.4202,-5.4144,-5.4206,-5.4224,-5.4182,-5.4395,-5.4326,-5.4351,-5.4437,-5.465,-5.4663,-5.4675,-5.4771,-5.4798,-5.4821,0,0,0,0,0,0,-5.3914,-5.3962,-5.3938,-5.4088,-5.4138,-5.4182,-5.4261,-5.4231,-5.4298,-5.4286,-5.4271,-5.4284,-5.4417,-5.4439,-5.4362,-5.4596,-5.4513,-5.4531,-5.4577,-5.4603,-5.4623,-5.4615,-5.4278,0,0,0,0,0,-5.3951,-5.4037,-5.4073,-5.4202,-5.4229,-5.4241,-5.4287,-5.4277,-5.4327,-5.4347,-5.4374,-5.4424,-5.4502,-5.4553,-5.4626,-5.4783,-5.4793,-5.4854,-5.4875,-5.4891,-5.4908,-5.4991,-5.5019,-5.4724,-5.4724,-5.4723,0,0,-5.4029,-5.4066,-5.412,-5.4221,-5.4259,-5.4346,-5.4259,-5.4355,-5.4419,-5.4361,-5.4484,-5.4506,-5.4559,-5.4702,-5.4766,-5.4725,-5.4991,-5.4908,-5.4921,-5.4928,-5.5007,-5.5035,-5.506,-5.4732,-5.4731,-5.4729,0,0,-5.4215,-5.4251,-5.4363,-5.4403,-5.4461,-5.4468,-5.4495,-5.4544,-5.4556,-5.4679,-5.4637,-5.4713,-5.4847,-5.4888,-5.4926,-5.5127,-5.5091,-5.5151,-5.5258,-5.534,-5.5364,-5.5384,-5.5456,-5.5482,-5.5167,-5.5167,-5.5167,0,-5.4303,-5.4435,-5.4424,-5.4524,-5.4569,-5.4522,-5.4635,-5.4673,-5.4752,-5.4783,-5.4737,-5.4905,-5.4938,-5.5089,-5.5138,-5.5171,-5.52,-5.5145,-5.5361,-5.5382,-5.5401,-5.5469,-5.5496,-5.5174,-5.5173,-5.5172,-5.5172,0,-5.4541,-5.4632,-5.4715,-5.4794,-5.4849,-5.4954,-5.4958,-5.5015,-5.4999,-5.5011,-5.5136,-5.5174,-5.5254,-5.5289,-5.5274,-5.5438,-5.5411,-5.5363,-5.5279,-5.5436,-5.55,-5.5526,-5.5184,-5.5181,-5.5179,-5.5178,0,0,-5.4786,-5.4858,-5.4888,-5.4924,-5.4984,-5.5054,-5.5157,-5.5237,-5.5285,-5.5341,-5.5426,-5.5541,-5.5497,-5.5541,-5.5529,-5.5602,-5.5758,-5.5545,-5.5546,-5.5583,-5.5941,-5.5977,-5.6008,-5.5735,-5.574,-5.5744,-5.5937,0,-5.4975,-5.5157,-5.515,-5.5319,-5.5403,-5.5359,-5.5449,-5.5495,-5.5508,-5.558,-5.5594,-5.5676,-5.5612,-5.5638,-5.5708,-5.5725,-5.583,-5.5711,-5.5813,-5.5817,-5.5801,-5.6041,-5.6079,-5.626,-5.5962,-5.5966,-5.5969,0,-5.5221,-5.5287,-5.5464,-5.5513,-5.5547,-5.5628,-5.5701,-5.5771,-5.5822,-5.5826,-5.5875,-5.5852,-5.5955,-5.5868,-5.6009,-5.5928,-5.5969,-5.5984,-5.599,-5.6,-5.5903,-5.6057,-5.6318,-5.6345,-5.6008,-5.6005,-5.6002,0,-5.5382,-5.5515,-5.5638,-5.5669,-5.5729,-5.5787,-5.5814,-5.586,-5.5908,-5.5971,-5.6002,-5.6075,-5.6115,-5.6172,-5.6169,-5.6106,-5.6312,-5.6225,-5.6318,-5.6318,-5.6363,-5.636,-5.6634,-5.639,-5.6389,-5.6389,-5.6388,0,-5.5595,-5.5705,-5.5711,-5.5788,-5.5909,-5.59,-5.602,-5.6041,-5.6083,-5.6161,-5.6127,-5.6201,-5.6192,-5.6266,-5.6264,-5.6381,-5.6399,-5.6405,-5.6403,-5.6409,-5.6408,-5.6436,-5.6423,-5.6396,-5.6394,-5.6393,-5.6392,0,-5.5796,-5.5805,-5.5936,-5.5982,-5.5996,-5.6084,-5.6122,-5.6194,-5.6204,-5.6303,-5.6326,-5.6342,-5.6427,-5.643,-5.6527,-5.6526,-5.6669,-5.6653,-5.6652,-5.6649,-5.6742,-5.6734,-5.7043,-5.7083,-5.6813,-5.6815,-5.6818,0,-5.5931,-5.6016,-5.6071,-5.6121,-5.6153,-5.6234,-5.6284,-5.6277,-5.633,-5.6394,-5.6458,-5.654,-5.6606,-5.6744,-5.6763,-5.6837,-5.6823,-5.6926,-5.6834,-5.6836,-5.6824,-5.682,-5.6828,-5.6944,-5.6947,-5.695,-5.6952,0,-5.6171,-5.6171,-5.6244,-5.632,-5.638,-5.6439,-5.6493,-5.6536,-5.6535,-5.6596,-5.6684,-5.6735,-5.6835,-5.6917,-5.6989,-5.7015,-5.6984,-5.6981,-5.7006,-5.7013,-5.7009,-5.7012,-5.6702,-5.6974,-5.6972,-5.697,-5.6969,-5.6968,-5.6343,-5.6416,-5.6467,-5.6549,-5.659,-5.6641,-5.6711,-5.673,-5.6804,-5.6886,-5.6877,-5.6974,-5.7022,-5.7116,-5.7148,-5.7223,-5.7187,-5.7224,-5.7233,-5.7243,-5.7253,-5.6997,-5.7236,-5.7235,-5.7235,-5.7234,-5.7234,0,-5.6581,-5.6612,-5.6688,-5.6766,-5.6831,-5.6797,-5.6855,-5.6911,-5.6998,-5.7046,-5.7111,-5.7212,-5.7291,-5.7317,-5.7393,-5.7448,-5.7436,-5.7468,-5.7464,-5.7471,-5.728,-5.7251,-5.7477,-5.7477,-5.7477,-5.7477,-5.7477,-5.7477,-5.6713,-5.6834,-5.684,-5.6981,-5.701,-5.7106,-5.7142,-5.7189,-5.7228,-5.7342,-5.7408,-5.7425,-5.7464,-5.7543,-5.7613,-5.7619,-5.7648,-5.7687,-5.7687,-5.7509,-5.7484,-5.7461,-5.7433,-5.7694,-5.7694,-5.7871,-5.7873,-5.7874]}]]